GW6994 Weather Reports


time (UTC)temp
C
wind
direction
speed
KPH
gust
KPH
rain 1hr
cm
rain 24hr
cm
rain mn
cm
humidity
%
barometer
mb
20260906172645 38 67 1.6 4.8 0.00 0.00 0.00 40 1054.8
20260906172141 38 347 0.0 6.4 0.00 0.00 0.00 40 1054.9
20260906171640 39 312 4.8 6.4 0.00 0.00 0.00 37 1054.8
20260906171136 37 65 1.6 6.4 0.00 0.00 0.00 39 1055.1
20260906170632 37 150 6.4 14.5 0.00 0.00 0.00 42 1055.0
20260906170131 37 123 8.0 12.9 0.00 0.00 0.00 41 1055.2
20260906165627 37 76 6.4 9.7 0.00 0.00 0.00 40 1055.2
20260906165123 37 265 3.2 8.0 0.00 0.00 0.00 40 1055.1
20260906164621 38 80 9.7 9.7 0.00 0.00 0.00 40 1055.3
20260906164117 37 101 12.9 14.5 0.00 0.00 0.00 41 1055.4
20260906163613 37 355 4.8 11.3 0.00 0.00 0.00 41 1055.5
20260906163108 37 105 4.8 14.5 0.00 0.00 0.00 43 1055.4
20260906162605 37 93 6.4 12.9 0.00 0.00 0.00 42 1055.3
20260906162100 38 340 3.2 8.0 0.00 0.00 0.00 42 1055.5
20260906161555 37 8 1.6 6.4 0.00 0.00 0.00 43 1055.4
20260906161054 37 182 1.6 6.4 0.00 0.00 0.00 45 1055.4
20260906160553 36 78 4.8 8.0 0.00 0.00 0.00 48 1055.5
20260906160052 35 61 4.8 9.7 0.00 0.00 0.00 47 1055.6
20260906155549 35 140 8.0 8.0 0.00 0.00 0.00 48 1055.6
20260906155046 35 111 12.9 14.5 0.00 0.00 0.00 49 1055.6
20260906154541 35 55 4.8 8.0 0.00 0.00 0.00 50 1055.5
20260906154039 35 77 6.4 8.0 0.00 0.00 0.00 51 1055.5
20260906153538 35 110 6.4 8.0 0.00 0.00 0.00 50 1055.5
20260906153034 33 83 3.2 9.7 0.00 0.00 0.00 52 1055.5
20260906152533 34 73 6.4 11.3 0.00 0.00 0.00 51 1055.2
20260906152033 33 335 0.0 4.8 0.00 0.00 0.00 53 1055.5
20260906151528 33 73 6.4 6.4 0.00 0.00 0.00 54 1055.5
20260906151024 33 84 6.4 9.7 0.00 0.00 0.00 53 1055.6
20260906150519 33 68 6.4 9.7 0.00 0.00 0.00 54 1055.4
20260906150014 32 125 3.2 6.4 0.00 0.00 0.00 55 1055.5
20260906145513 32 122 0.0 6.4 0.00 0.00 0.00 57 1055.5
20260906145008 32 89 3.2 6.4 0.00 0.00 0.00 57 1055.4
20260906144502 31 131 4.8 8.0 0.00 0.00 0.00 57 1055.5
20260906143958 31 170 4.8 6.4 0.00 0.00 0.00 58 1055.3
20260906143453 31 125 3.2 6.4 0.00 0.00 0.00 59 1055.5
20260906142949 31 80 1.6 6.4 0.00 0.00 0.00 60 1055.5
20260906142448 31 79 3.2 6.4 0.00 0.00 0.00 61 1055.4
20260906141944 30 81 4.8 8.0 0.00 0.00 0.00 61 1055.3
20260906141443 30 84 6.4 8.0 0.00 0.00 0.00 62 1055.4
20260906140938 30 31 0.0 8.0 0.00 0.00 0.00 63 1055.5
20260906140433 30 73 8.0 8.0 0.00 0.00 0.00 62 1055.2
20260906135931 30 80 4.8 9.7 0.00 0.00 0.00 63 1055.4
20260906135430 30 88 6.4 6.4 0.00 0.00 0.00 63 1055.3
20260906134926 28 71 3.2 6.4 0.00 0.00 0.00 64 1055.3
20260906134421 28 97 1.6 4.8 0.00 0.00 0.00 66 1055.4
20260906133915 28 89 0.0 6.4 0.00 0.00 0.00 67 1055.3
20260906133411 28 67 3.2 6.4 0.00 0.00 0.00 69 1055.4
20260906132907 27 72 3.2 4.8 0.00 0.00 0.00 70 1055.4
20260906132402 27 104 3.2 4.8 0.00 0.00 0.00 70 1055.4
20260906131857 27 89 0.0 3.2 0.00 0.00 0.00 73 1055.3
20260906131353 26 96 3.2 3.2 0.00 0.00 0.00 73 1055.3
20260906130848 26 84 1.6 3.2 0.00 0.00 0.00 74 1055.2
20260906130348 26 127 1.6 3.2 0.00 0.00 0.00 74 1055.3
20260906125847 26 7 1.6 1.6 0.00 0.00 0.00 75 1055.1
20260906125344 25 77 1.6 3.2 0.00 0.00 0.00 78 1055.2
20260906124839 25 67 3.2 4.8 0.00 0.00 0.00 80 1055.0
20260906124335 24 89 0.0 3.2 0.00 0.00 0.00 85 1055.1
20260906123834 23 152 0.0 3.2 0.00 0.00 0.00 87 1055.1
20260906123329 22 111 1.6 3.2 0.00 0.00 0.00 91 1054.9
20260906122829 21 79 0.0 3.2 0.00 0.00 0.00 92 1054.7
20260906122324 21 7 1.6 3.2 0.00 0.00 0.00 92 1054.7
20260906121821 20 30 3.2 3.2 0.00 0.00 0.00 92 1054.9
20260906121316 20 132 0.0 1.6 0.00 0.00 0.00 92 1054.7
20260906120813 20 142 0.0 1.6 0.00 0.00 0.00 92 1054.7
20260906120308 20 96 0.0 1.6 0.00 0.00 0.00 92 1054.7
20260906115804 20 145 0.0 1.6 0.00 0.00 0.00 92 1054.6
20260906115259 20 27 1.6 3.2 0.00 0.00 0.00 93 1054.8
20260906114759 20 5 1.6 3.2 0.00 0.00 0.00 93 1054.7
20260906114254 20 58 0.0 1.6 0.00 0.00 0.00 93 1054.6
20260906113749 20 63 1.6 3.2 0.00 0.00 0.00 92 1054.5
20260906113249 20 38 0.0 3.2 0.00 0.00 0.00 92 1054.5
20260906112748 20 9 0.0 3.2 0.00 0.00 0.00 92 1054.5
20260906112245 20 135 0.0 3.2 0.00 0.00 0.00 92 1054.5
20260906111744 20 89 0.0 0.0 0.00 0.00 0.00 92 1054.2
20260906111244 20 81 0.0 3.2 0.00 0.00 0.00 92 1054.3
20260906110739 20 80 0.0 1.6 0.00 0.00 0.00 91 1054.3
20260906110235 20 131 1.6 3.2 0.00 0.00 0.00 92 1054.5
20260906105734 20 96 3.2 3.2 0.00 0.00 0.00 92 1054.3
20260906105230 20 51 0.0 3.2 0.00 0.00 0.00 92 1054.2
20260906104725 20 20 1.6 3.2 0.00 0.00 0.00 92 1054.2
20260906104224 20 345 0.0 0.0 0.00 0.00 0.00 92 1054.3
20260906103721 20 293 0.0 1.6 0.00 0.00 0.00 91 1054.5
20260906103216 20 348 0.0 3.2 0.00 0.00 0.00 90 1054.3
20260906102712 20 212 0.0 1.6 0.00 0.00 0.00 91 1054.5
20260906102211 20 173 0.0 3.2 0.00 0.00 0.00 91 1054.4
20260906101706 21 132 1.6 3.2 0.00 0.00 0.00 90 1054.3
20260906101201 21 25 3.2 6.4 0.00 0.00 0.00 90 1054.3
20260906100656 21 123 0.0 3.2 0.00 0.00 0.00 90 1054.1
20260906100156 21 101 0.0 3.2 0.00 0.00 0.00 90 1054.2
20260906095651 21 36 0.0 3.2 0.00 0.00 0.00 90 1054.0
20260906095147 21 310 0.0 0.0 0.00 0.00 0.00 90 1054.0
20260906094645 21 66 0.0 0.0 0.00 0.00 0.00 89 1054.1
20260906094141 21 15 0.0 0.0 0.00 0.00 0.00 89 1053.9
20260906093638 21 15 0.0 0.0 0.00 0.00 0.00 90 1053.9
20260906093137 21 15 0.0 0.0 0.00 0.00 0.00 89 1053.9
20260906092632 21 89 0.0 0.0 0.00 0.00 0.00 89 1054.0
20260906092127 21 89 0.0 0.0 0.00 0.00 0.00 89 1053.7
20260906091623 21 89 0.0 0.0 0.00 0.00 0.00 89 1053.7
20260906091120 21 89 0.0 0.0 0.00 0.00 0.00 89 1053.7
20260906090614 21 50 0.0 1.6 0.00 0.00 0.00 89 1053.7
20260906090114 21 89 0.0 0.0 0.00 0.00 0.00 89 1053.6
20260906085613 21 50 0.0 0.0 0.00 0.00 0.00 89 1053.6
20260906085108 21 5 0.0 1.6 0.00 0.00 0.00 89 1053.4
20260906084602 21 230 0.0 0.0 0.00 0.00 0.00 88 1053.6
20260906084101 21 230 0.0 0.0 0.00 0.00 0.00 88 1053.5
20260906083557 21 119 0.0 0.0 0.00 0.00 0.00 88 1053.8
20260906083056 21 89 0.0 3.2 0.00 0.00 0.00 87 1053.5
20260906082552 21 129 0.0 0.0 0.00 0.00 0.00 87 1053.5
20260906082048 21 142 0.0 0.0 0.00 0.00 0.00 87 1053.5
20260906081543 21 142 0.0 0.0 0.00 0.00 0.00 87 1053.6
20260906081039 21 142 0.0 0.0 0.00 0.00 0.00 87 1053.3
20260906080535 22 142 0.0 0.0 0.00 0.00 0.00 86 1053.6
20260906080031 22 142 0.0 0.0 0.00 0.00 0.00 86 1053.4
20260906075531 22 136 0.0 1.6 0.00 0.00 0.00 86 1053.4
20260906075026 22 147 0.0 0.0 0.00 0.00 0.00 86 1053.5
20260906074521 22 147 0.0 0.0 0.00 0.00 0.00 86 1053.6
20260906074019 22 129 0.0 0.0 0.00 0.00 0.00 85 1053.4
20260906073514 22 269 0.0 0.0 0.00 0.00 0.00 86 1053.6
20260906073010 22 235 0.0 0.0 0.00 0.00 0.00 85 1053.6
20260906072505 22 164 0.0 0.0 0.00 0.00 0.00 85 1053.7
20260906072001 22 164 0.0 0.0 0.00 0.00 0.00 85 1053.5
20260906071457 22 50 0.0 0.0 0.00 0.00 0.00 85 1053.7
20260906070952 22 50 0.0 0.0 0.00 0.00 0.00 85 1053.9
20260906070448 22 142 0.0 0.0 0.00 0.00 0.00 84 1053.8
20260906065944 22 117 0.0 0.0 0.00 0.00 0.00 84 1053.9
20260906065443 22 322 0.0 0.0 0.00 0.00 0.00 84 1053.6
20260906064940 22 142 0.0 0.0 0.00 0.00 0.00 84 1054.0
20260906064436 22 142 0.0 1.6 0.00 0.00 0.00 83 1054.0
20260906063935 22 333 0.0 0.0 0.00 0.00 0.00 83 1053.9
20260906063431 22 333 0.0 0.0 0.00 0.00 0.00 83 1054.0
20260906062926 22 89 0.0 0.0 0.00 0.00 0.00 83 1054.2
20260906062426 22 89 0.0 0.0 0.00 0.00 0.00 83 1054.0
20260906061921 22 151 0.0 1.6 0.00 0.00 0.00 82 1054.0
20260906061417 22 136 1.6 1.6 0.00 0.00 0.00 82 1054.1
20260906060911 23 153 0.0 0.0 0.00 0.00 0.00 82 1054.2
20260906060409 23 322 0.0 0.0 0.00 0.00 0.00 82 1054.1
20260906055905 23 322 0.0 0.0 0.00 0.00 0.00 81 1053.9
20260906055401 23 322 0.0 0.0 0.00 0.00 0.00 81 1054.1
20260906054856 23 124 0.0 0.0 0.00 0.00 0.00 80 1054.3
20260906054350 23 124 0.0 0.0 0.00 0.00 0.00 80 1054.1
20260906053847 23 205 0.0 0.0 0.00 0.00 0.00 80 1054.1
20260906053342 23 15 0.0 0.0 0.00 0.00 0.00 79 1054.1
20260906052837 23 44 0.0 1.6 0.00 0.00 0.00 79 1054.1
20260906052334 23 32 0.0 0.0 0.00 0.00 0.00 79 1054.0
20260906051831 23 130 0.0 0.0 0.00 0.00 0.00 79 1054.1
20260906051330 23 29 0.0 0.0 0.00 0.00 0.00 79 1053.8
20260906050826 23 336 0.0 0.0 0.00 0.00 0.00 79 1053.9
20260906050321 23 343 0.0 0.0 0.00 0.00 0.00 79 1053.8
20260906045819 23 343 0.0 1.6 0.00 0.00 0.00 79 1053.9
20260906045314 23 217 0.0 0.0 0.00 0.00 0.00 78 1054.0
20260906044811 24 242 0.0 1.6 0.00 0.00 0.00 77 1054.1
20260906044305 24 230 0.0 0.0 0.00 0.00 0.00 76 1054.2
20260906043801 24 284 0.0 0.0 0.00 0.00 0.00 76 1054.3
20260906043257 24 25 0.0 0.0 0.00 0.00 0.00 76 1054.1
20260906042756 24 25 0.0 0.0 0.00 0.00 0.00 76 1054.2
20260906042256 24 25 0.0 0.0 0.00 0.00 0.00 75 1054.3
20260906041751 25 25 0.0 0.0 0.00 0.00 0.00 75 1054.1
20260906041246 25 25 0.0 0.0 0.00 0.00 0.00 74 1054.1
20260906040742 25 50 0.0 0.0 0.00 0.00 0.00 74 1054.1
20260906040237 25 50 0.0 0.0 0.00 0.00 0.00 73 1054.2
20260906035732 25 50 0.0 0.0 0.00 0.00 0.00 74 1054.0
20260906035228 25 297 0.0 0.0 0.00 0.00 0.00 74 1053.9
20260906034728 25 255 0.0 0.0 0.00 0.00 0.00 74 1054.1
20260906034223 25 217 0.0 0.0 0.00 0.00 0.00 73 1054.0
20260906033719 25 62 0.0 0.0 0.00 0.00 0.00 72 1054.0
20260906033218 25 62 0.0 0.0 0.00 0.00 0.00 72 1053.9
20260906032715 25 44 0.0 0.0 0.00 0.00 0.00 71 1053.9
20260906032215 25 44 0.0 0.0 0.00 0.00 0.00 70 1053.7
20260906031710 26 44 0.0 0.0 0.00 0.00 0.00 70 1053.8
20260906031206 26 130 0.0 0.0 0.00 0.00 0.00 69 1053.7
20260906030705 26 154 0.0 0.0 0.00 0.00 0.00 69 1053.7
20260906030200 26 154 0.0 0.0 0.00 0.00 0.00 69 1053.5
20260906025659 26 135 0.0 0.0 0.00 0.00 0.00 68 1053.7
20260906025153 26 217 0.0 0.0 0.00 0.00 0.00 68 1053.3
20260906024648 26 309 0.0 0.0 0.00 0.00 0.00 67 1053.5
20260906024147 26 195 0.0 0.0 0.00 0.00 0.00 67 1053.1
20260906023643 26 195 0.0 0.0 0.00 0.00 0.00 67 1053.5
20260906023143 27 195 0.0 0.0 0.00 0.00 0.00 67 1053.1
20260906022638 27 217 0.0 0.0 0.00 0.00 0.00 66 1053.1
20260906022134 27 235 0.0 0.0 0.00 0.00 0.00 66 1053.4
20260906021630 27 235 0.0 0.0 0.00 0.00 0.00 65 1053.0
20260906021129 27 235 0.0 0.0 0.00 0.00 0.00 64 1052.9
20260906020628 27 235 0.0 0.0 0.00 0.00 0.00 64 1052.8
20260906020123 27 103 0.0 0.0 0.00 0.00 0.00 64 1052.7
20260906015618 27 309 0.0 0.0 0.00 0.00 0.00 64 1052.8
20260906015116 27 50 0.0 0.0 0.00 0.00 0.00 63 1052.7
20260906014611 28 50 0.0 0.0 0.00 0.00 0.00 63 1052.6
20260906014108 28 224 0.0 1.6 0.00 0.00 0.00 62 1052.7
20260906013603 28 217 0.0 0.0 0.00 0.00 0.00 62 1052.6
20260906013058 28 315 0.0 1.6 0.00 0.00 0.00 62 1052.5
20260906012553 28 119 3.2 3.2 0.00 0.00 0.00 61 1052.7
20260906012052 29 104 4.8 4.8 0.00 0.00 0.00 59 1052.3
20260906011549 30 50 0.0 0.0 0.00 0.00 0.00 57 1052.2
20260906011048 30 345 1.6 1.6 0.00 0.00 0.00 56 1052.2
20260906010544 30 6 0.0 0.0 0.00 0.00 0.00 54 1052.2
20260906010040 31 63 0.0 1.6 0.00 0.00 0.00 54 1052.3
20260906005539 31 11 0.0 0.0 0.00 0.00 0.00 53 1052.2
20260906005039 31 25 0.0 1.6 0.00 0.00 0.00 51 1052.2
20260906004538 32 104 0.0 1.6 0.00 0.00 0.00 49 1052.2
20260906004033 32 150 0.0 0.0 0.00 0.00 0.00 49 1052.3
20260906003528 33 184 1.6 3.2 0.00 0.00 0.00 47 1052.3
20260906003024 33 103 4.8 4.8 0.00 0.00 0.00 47 1052.3
20260906002519 33 153 6.4 8.0 0.00 0.00 0.00 46 1052.2
20260906002013 33 149 8.0 9.7 0.00 0.00 0.00 45 1052.2
20260906001509 34 159 3.2 12.9 0.00 0.00 0.00 45 1052.4
20260906001003 35 132 4.8 8.0 0.00 0.00 0.00 45 1052.4
20260906000459 35 149 6.4 8.0 0.00 0.00 0.00 43 1052.1
20260905235954 36 77 0.0 0.0 0.00 0.00 0.00 43 1052.1
20260905235454 36 77 0.0 0.0 0.00 0.00 0.00 43 1051.9
20260905234949 36 77 0.0 0.0 0.00 0.00 0.00 42 1052.0
20260905234445 36 77 0.0 0.0 0.00 0.00 0.00 41 1052.1
20260905233944 37 217 0.0 0.0 0.00 0.00 0.00 40 1051.8
20260905233440 38 1 0.0 1.6 0.00 0.00 0.00 37 1052.0
20260905232938 40 352 0.0 4.8 0.00 0.00 0.00 35 1051.8
20260905232435 40 130 0.0 1.6 0.00 0.00 0.00 35 1051.9
20260905231930 40 212 0.0 4.8 0.00 0.00 0.00 36 1051.9
20260905231426 40 357 1.6 3.2 0.00 0.00 0.00 34 1052.0
20260905230922 40 341 3.2 3.2 0.00 0.00 0.00 33 1051.8
20260905230420 40 313 1.6 1.6 0.00 0.00 0.00 33 1051.9
20260905225919 40 85 3.2 3.2 0.00 0.00 0.00 33 1051.9
20260905225414 40 120 1.6 4.8 0.00 0.00 0.00 34 1051.8
20260905224909 40 105 1.6 3.2 0.00 0.00 0.00 33 1051.8
20260905224405 40 119 0.0 3.2 0.00 0.00 0.00 35 1051.8
20260905223859 39 64 3.2 8.0 0.00 0.00 0.00 35 1052.0
20260905223358 40 122 1.6 3.2 0.00 0.00 0.00 35 1051.7
20260905222857 39 86 1.6 6.4 0.00 0.00 0.00 36 1051.7
20260905222356 38 99 1.6 4.8 0.00 0.00 0.00 37 1051.7
20260905221852 37 92 3.2 4.8 0.00 0.00 0.00 39 1051.8
20260905221349 36 79 4.8 6.4 0.00 0.00 0.00 39 1051.8
20260905220844 37 105 4.8 4.8 0.00 0.00 0.00 39 1051.9
20260905220341 37 135 0.0 3.2 0.00 0.00 0.00 39 1052.2
20260905215840 38 24 3.2 4.8 0.00 0.00 0.00 38 1052.3
20260905215336 38 224 0.0 3.2 0.00 0.00 0.00 37 1052.0
20260905214832 39 95 1.6 6.4 0.00 0.00 0.00 36 1052.1
20260905214332 40 5 1.6 14.5 0.00 0.00 0.00 35 1052.0
20260905213827 40 237 0.0 6.4 0.00 0.00 0.00 33 1052.0
20260905213323 40 277 4.8 6.4 0.00 0.00 0.00 32 1052.2
20260905212818 40 243 3.2 4.8 0.00 0.00 0.00 33 1051.9
20260905212318 39 253 3.2 9.7 0.00 0.00 0.00 34 1051.8
20260905211818 39 265 4.8 6.4 0.00 0.00 0.00 34 1052.0
20260905211313 39 269 0.0 6.4 0.00 0.00 0.00 35 1052.1
20260905210810 39 276 3.2 6.4 0.00 0.00 0.00 35 1052.1
20260905210309 40 38 0.0 3.2 0.00 0.00 0.00 33 1052.3
20260905205808 39 224 0.0 3.2 0.00 0.00 0.00 36 1052.6
20260905205306 38 133 0.0 1.6 0.00 0.00 0.00 36 1052.6
20260905204802 38 157 0.0 1.6 0.00 0.00 0.00 37 1052.7
20260905204259 38 71 1.6 6.4 0.00 0.00 0.00 37 1052.7
20260905203758 39 97 3.2 3.2 0.00 0.00 0.00 36 1052.8
20260905203253 40 35 0.0 11.3 0.00 0.00 0.00 34 1052.9
20260905202749 39 53 0.0 4.8 0.00 0.00 0.00 35 1052.7
20260905202244 39 142 0.0 4.8 0.00 0.00 0.00 35 1052.9
20260905201739 39 58 0.0 9.7 0.00 0.00 0.00 35 1052.9
20260905201234 39 141 6.4 12.9 0.00 0.00 0.00 35 1052.9
20260905200729 40 118 8.0 14.5 0.00 0.00 0.00 34 1053.0
20260905200225 40 49 6.4 16.1 0.00 0.00 0.00 34 1053.1
20260905195723 40 154 4.8 12.9 0.00 0.00 0.00 35 1053.3
20260905195218 40 108 8.0 11.3 0.00 0.00 0.00 34 1053.4
20260905194714 40 219 6.4 6.4 0.00 0.00 0.00 34 1053.1
20260905194213 41 211 1.6 3.2 0.00 0.00 0.00 33 1053.1
20260905193707 41 40 1.6 4.8 0.00 0.00 0.00 34 1053.5
20260905193202 40 253 3.2 6.4 0.00 0.00 0.00 34 1053.4
20260905192658 40 339 3.2 6.4 0.00 0.00 0.00 35 1053.7
20260905192154 39 261 1.6 14.5 0.00 0.00 0.00 36 1053.8
20260905191654 38 185 3.2 8.0 0.00 0.00 0.00 35 1053.5
20260905191151 38 200 3.2 8.0 0.00 0.00 0.00 36 1053.8
20260905190650 38 203 3.2 6.4 0.00 0.00 0.00 37 1053.8
20260905190149 38 241 4.8 4.8 0.00 0.00 0.00 36 1053.8
20260905185649 38 83 6.4 12.9 0.00 0.00 0.00 36 1054.0
20260905185143 39 122 6.4 11.3 0.00 0.00 0.00 37 1054.1
20260905184643 39 159 3.2 6.4 0.00 0.00 0.00 36 1054.0
20260905184142 38 150 9.7 20.9 0.00 0.00 0.00 38 1054.3
20260905183641 38 91 4.8 12.9 0.00 0.00 0.00 37 1054.1
20260905183137 39 95 6.4 9.7 0.00 0.00 0.00 37 1054.3
20260905182636 38 13 1.6 9.7 0.00 0.00 0.00 37 1054.5
20260905182136 38 104 6.4 8.0 0.00 0.00 0.00 38 1054.5
20260905181631 38 185 3.2 14.5 0.00 0.00 0.00 38 1054.5
20260905181130 38 136 11.3 19.3 0.00 0.00 0.00 38 1054.7
20260905180625 38 180 4.8 9.7 0.00 0.00 0.00 39 1054.7
20260905180121 38 150 3.2 4.8 0.00 0.00 0.00 38 1055.0
20260905175620 38 73 6.4 9.7 0.00 0.00 0.00 39 1054.8
20260905175116 36 104 0.0 3.2 0.00 0.00 0.00 41 1055.0
20260905174611 36 19 0.0 6.4 0.00 0.00 0.00 42 1055.0
20260905174106 36 113 0.0 1.6 0.00 0.00 0.00 42 1055.1
20260905173603 36 26 3.2 3.2 0.00 0.00 0.00 43 1055.2
20260905173058 36 269 1.6 3.2 0.00 0.00 0.00 41 1055.0